This is the latest recevied weather packets stored in our database for station/object HB9EKO-12. If no packets are shown the sender has not sent any weather packets the latest 10 day(s).
| Time | Temp. | Humidity | Pressure | Rain* | Wind** | Luminosity | Snow |
|---|---|---|---|---|---|---|---|
| 1776943255 | 17.78° C | 31% | 1025 hPa | - | - | - | - |
| 1776941445 | 17.78° C | 33% | 1026 hPa | - | - | - | - |
| 1776940540 | 16.67° C | 34% | 1026 hPa | - | - | - | - |
| 1776939634 | 16.11° C | 31% | 1026 hPa | - | - | - | - |
| 1776938729 | 16.11° C | 35% | 1026 hPa | - | - | - | - |
| 1776936919 | 14.44° C | 39% | 1026 hPa | - | - | - | - |
| 1776936013 | 13.89° C | 42% | 1026 hPa | - | - | - | - |
| 1776935108 | 13.33° C | 42% | 1027 hPa | - | - | - | - |
| 1776934203 | 12.22° C | 43% | 1027 hPa | - | - | - | - |
| 1776933298 | 12.22° C | 45% | 1027 hPa | - | - | - | - |
| 1776932392 | 11.11° C | 45% | 1027 hPa | - | - | - | - |
| 1776931487 | 10.56° C | 46% | 1027 hPa | - | - | - | - |
| 1776930582 | 9.44° C | 48% | 1027 hPa | - | - | - | - |
| 1776929677 | 8.89° C | 49% | 1027 hPa | - | - | - | - |
| 1776928773 | 8.89° C | 51% | 1027 hPa | - | - | - | - |
| 1776927866 | 8.33° C | 51% | 1027 hPa | - | - | - | - |
| 1776926961 | 8.33° C | 51% | 1027 hPa | - | - | - | - |
| 1776926056 | 7.78° C | 53% | 1027 hPa | - | - | - | - |
| 1776925151 | 7.22° C | 55% | 1026 hPa | - | - | - | - |
| 1776924246 | 6.67° C | 55% | 1026 hPa | - | - | - | - |
| 1776923340 | 6.67° C | 56% | 1026 hPa | - | - | - | - |
| 1776922435 | 6.11° C | 56% | 1026 hPa | - | - | - | - |
| 1776921530 | 5.56° C | 60% | 1026 hPa | - | - | - | - |
| 1776920626 | 5° C | 60% | 1026 hPa | - | - | - | - |
| 1776919719 | 5° C | 61% | 1026 hPa | - | - | - | - |
* Rain since midnight (hover to see other rain measurements)
** Current wind speed in m/s (hover to see current wind gust speed)